GLO2015 SBCT-SBGL

Flight info

Callsign GLO2015
Flight time 1h 2m
Altitude 37000
Route EDVEB UM548 KOXAG UM540 ANISE DCT DORLU UZ42 VUREP
Aircraft B38M/M-DFGHIJ4J7KLORWXY/LB1

Departure

Time 2026-05-08 16:47
Airport Curitiba-Afonso Pena International Airport (SBCT)

Arrival

Time 2026-05-08 17:49
Airport Rio Galeão – Tom Jobim International Airport (SBGL)
Time Latitude Longitude Altitude Speed Heading
2026-05-08 16:34 -25.53687 -49.17082 2998 ft 0 kts 225°
2026-05-08 16:40 -25.53682 -49.17076 2998 ft 4 kts 224°
2026-05-08 16:41 -25.53661 -49.17058 2998 ft 4 kts 209°
2026-05-08 16:41 -25.53637 -49.17049 2998 ft 4 kts 175°
2026-05-08 16:41 -25.53621 -49.17056 2998 ft 0 kts 134°
2026-05-08 16:44 -25.53621 -49.17055 2998 ft 1 kts 134°
2026-05-08 16:44 -25.53636 -49.17020 2998 ft 9 kts 90°
2026-05-08 16:44 -25.53612 -49.16939 2998 ft 11 kts 90°
2026-05-08 16:44 -25.53612 -49.16915 2998 ft 0 kts 90°
2026-05-08 16:45 -25.53612 -49.16914 2998 ft 1 kts 90°
2026-05-08 16:45 -25.53611 -49.16865 2997 ft 11 kts 90°
2026-05-08 16:45 -25.53612 -49.16768 2997 ft 10 kts 90°
2026-05-08 16:45 -25.53596 -49.16739 2997 ft 2 kts 12°
2026-05-08 16:46 -25.53580 -49.16752 2997 ft 6 kts 312°
2026-05-08 16:46 -25.53407 -49.16952 2998 ft 67 kts 315°
2026-05-08 16:46 -25.52944 -49.17471 2999 ft 120 kts 314°
2026-05-08 16:46 -25.52258 -49.18248 3029 ft 156 kts 313°
2026-05-08 16:47 -25.51507 -49.19090 3565 ft 152 kts 313°
2026-05-08 16:47 -25.50825 -49.20064 3860 ft 164 kts 292°
2026-05-08 16:47 -25.50408 -49.21149 4587 ft 154 kts 293°
2026-05-08 16:47 -25.49928 -49.22275 4868 ft 172 kts 295°
2026-05-08 16:48 -25.49355 -49.23543 5109 ft 199 kts 297°
2026-05-08 16:48 -25.48661 -49.25011 5346 ft 231 kts 299°
2026-05-08 16:48 -25.47871 -49.26601 6005 ft 242 kts 304°
2026-05-08 16:49 -25.44926 -49.28271 7543 ft 258 kts 359°
2026-05-08 16:49 -25.43174 -49.27688 8332 ft 272 kts 22°
2026-05-08 16:49 -25.41480 -49.26710 9102 ft 277 kts 20°
2026-05-08 16:49 -25.39738 -49.25750 9868 ft 282 kts 20°
2026-05-08 16:50 -25.37955 -49.24769 10509 ft 293 kts 20°
2026-05-08 16:50 -25.36078 -49.23726 10913 ft 312 kts 24°
2026-05-08 16:50 -25.34346 -49.22141 11453 ft 335 kts 46°
2026-05-08 16:50 -25.33224 -49.19811 12014 ft 355 kts 70°
2026-05-08 16:51 -25.33005 -49.17064 12735 ft 365 kts 90°
2026-05-08 16:51 -25.33072 -49.14274 13368 ft 370 kts 87°
2026-05-08 16:51 -25.33087 -49.11416 14066 ft 373 kts 87°
2026-05-08 16:51 -25.33092 -49.08541 14811 ft 375 kts 86°
2026-05-08 16:52 -25.33091 -49.05642 15498 ft 379 kts 86°
2026-05-08 16:52 -25.33087 -49.02714 16132 ft 383 kts 86°
2026-05-08 16:52 -25.33083 -48.99762 16768 ft 386 kts 86°
2026-05-08 16:52 -25.33077 -48.96779 17375 ft 389 kts 85°
2026-05-08 16:53 -25.33064 -48.90753 18567 ft 395 kts 85°
2026-05-08 16:53 -25.33056 -48.87691 19046 ft 400 kts 85°
2026-05-08 16:53 -25.33048 -48.84601 19567 ft 404 kts 85°
2026-05-08 16:54 -25.33039 -48.81475 20008 ft 409 kts 85°
2026-05-08 16:54 -25.33028 -48.78319 20486 ft 412 kts 85°
2026-05-08 16:54 -25.33017 -48.75134 20950 ft 416 kts 85°
2026-05-08 16:54 -25.33005 -48.71914 21432 ft 420 kts 85°
2026-05-08 16:55 -25.32992 -48.68659 21906 ft 424 kts 85°
2026-05-08 16:55 -25.32978 -48.65431 22355 ft 428 kts 85°
2026-05-08 16:55 -25.32964 -48.62128 22784 ft 431 kts 85°
2026-05-08 16:55 -25.32948 -48.58796 23228 ft 435 kts 85°
2026-05-08 16:56 -25.32932 -48.55431 23674 ft 439 kts 85°
2026-05-08 16:56 -25.32914 -48.52047 24122 ft 443 kts 85°
2026-05-08 16:56 -25.32894 -48.48624 24548 ft 447 kts 85°
2026-05-08 16:56 -25.32874 -48.45183 24971 ft 450 kts 85°
2026-05-08 16:57 -25.32853 -48.41710 25393 ft 453 kts 85°
2026-05-08 16:57 -25.32831 -48.38212 25795 ft 457 kts 85°
2026-05-08 16:57 -25.32808 -48.34684 26177 ft 460 kts 85°
2026-05-08 16:57 -25.32784 -48.31130 26562 ft 463 kts 85°
2026-05-08 16:58 -25.32758 -48.27548 26934 ft 466 kts 85°
2026-05-08 16:58 -25.32732 -48.23994 27281 ft 470 kts 85°
2026-05-08 16:58 -25.32705 -48.20366 27634 ft 473 kts 85°
2026-05-08 16:58 -25.32677 -48.16725 27974 ft 476 kts 85°
2026-05-08 16:59 -25.32647 -48.13052 28320 ft 479 kts 85°
2026-05-08 16:59 -25.32616 -48.09364 28636 ft 482 kts 85°
2026-05-08 16:59 -25.32585 -48.05651 28966 ft 485 kts 85°
2026-05-08 16:59 -25.32553 -48.01917 29263 ft 488 kts 85°
2026-05-08 17:00 -25.32483 -47.98159 29560 ft 488 kts 80°
2026-05-08 17:00 -25.31905 -47.94498 29910 ft 484 kts 73°
2026-05-08 17:00 -25.31247 -47.90831 30154 ft 489 kts 74°
2026-05-08 17:00 -25.30595 -47.87140 30458 ft 491 kts 74°
2026-05-08 17:01 -25.29932 -47.83429 30768 ft 493 kts 74°
2026-05-08 17:01 -25.29266 -47.79709 31014 ft 496 kts 74°
2026-05-08 17:01 -25.28592 -47.75963 31277 ft 499 kts 74°
2026-05-08 17:01 -25.27914 -47.72193 31583 ft 500 kts 74°
2026-05-08 17:02 -25.27233 -47.68418 31850 ft 502 kts 74°
2026-05-08 17:02 -25.26547 -47.64618 32080 ft 505 kts 74°
2026-05-08 17:02 -25.25859 -47.60813 32348 ft 507 kts 74°
2026-05-08 17:02 -25.25166 -47.56984 32687 ft 507 kts 74°
2026-05-08 17:03 -25.24472 -47.53160 33042 ft 507 kts 74°
2026-05-08 17:03 -25.23779 -47.49345 33381 ft 507 kts 75°
2026-05-08 17:03 -25.23085 -47.45531 33736 ft 506 kts 75°
2026-05-08 17:03 -25.22390 -47.41725 34038 ft 506 kts 75°
2026-05-08 17:04 -25.21693 -47.37912 34349 ft 506 kts 75°
2026-05-08 17:04 -25.21006 -47.34155 34700 ft 505 kts 75°
2026-05-08 17:04 -25.20301 -47.30310 35032 ft 504 kts 75°
2026-05-08 17:04 -25.19614 -47.26569 35325 ft 504 kts 75°
2026-05-08 17:05 -25.18918 -47.22783 35653 ft 502 kts 75°
2026-05-08 17:05 -25.18222 -47.19002 35934 ft 502 kts 75°
2026-05-08 17:05 -25.17525 -47.15222 36188 ft 501 kts 75°
2026-05-08 17:05 -25.16829 -47.11451 36433 ft 501 kts 75°
2026-05-08 17:06 -25.16132 -47.07685 36694 ft 501 kts 75°
2026-05-08 17:06 -25.15393 -47.03931 36847 ft 499 kts 69°
2026-05-08 17:06 -25.14080 -47.00460 36848 ft 482 kts 53°
2026-05-08 17:06 -25.12138 -46.97523 36856 ft 469 kts 39°
2026-05-08 17:07 -25.09677 -46.95252 36862 ft 457 kts 27°
2026-05-08 17:07 -25.07020 -46.93309 36857 ft 458 kts 26°
2026-05-08 17:07 -25.01604 -46.89594 36861 ft 457 kts 25°
2026-05-08 17:08 -24.96153 -46.85988 36860 ft 457 kts 24°
2026-05-08 17:08 -24.90723 -46.82431 36859 ft 457 kts 24°
2026-05-08 17:09 -24.85248 -46.78852 36860 ft 458 kts 24°
2026-05-08 17:09 -24.79761 -46.75268 36860 ft 458 kts 24°
2026-05-08 17:10 -24.74276 -46.71689 36859 ft 458 kts 24°
2026-05-08 17:10 -24.68779 -46.68106 36852 ft 459 kts 25°
2026-05-08 17:11 -24.63277 -46.64524 36851 ft 459 kts 25°
2026-05-08 17:11 -24.58149 -46.60289 36889 ft 469 kts 39°
2026-05-08 17:12 -24.53443 -46.55360 36909 ft 471 kts 38°
2026-05-08 17:12 -24.48723 -46.50383 36895 ft 471 kts 39°
2026-05-08 17:13 -24.44000 -46.45400 36901 ft 471 kts 39°
2026-05-08 17:13 -24.39272 -46.40418 36888 ft 471 kts 39°
2026-05-08 17:14 -24.34545 -46.35441 36884 ft 471 kts 39°
2026-05-08 17:14 -24.29811 -46.30463 36880 ft 471 kts 39°
2026-05-08 17:15 -24.25084 -46.25498 36869 ft 471 kts 39°
2026-05-08 17:15 -24.20349 -46.20529 36844 ft 471 kts 39°
2026-05-08 17:16 -24.15611 -46.15563 36840 ft 471 kts 39°
2026-05-08 17:16 -24.10882 -46.10611 36840 ft 471 kts 39°
2026-05-08 17:17 -24.06175 -46.05688 36840 ft 471 kts 39°
2026-05-08 17:17 -24.01433 -46.00734 36843 ft 471 kts 39°
2026-05-08 17:18 -23.96690 -45.95784 36848 ft 471 kts 39°
2026-05-08 17:18 -23.91947 -45.90838 36856 ft 471 kts 39°
2026-05-08 17:19 -23.87206 -45.85901 36872 ft 471 kts 39°
2026-05-08 17:19 -23.82452 -45.80955 36883 ft 472 kts 39°
2026-05-08 17:20 -23.77696 -45.76012 36896 ft 472 kts 39°
2026-05-08 17:20 -23.72946 -45.71081 36918 ft 471 kts 39°
2026-05-08 17:21 -23.68988 -45.66977 36915 ft 472 kts 39°
2026-05-08 17:21 -23.63421 -45.61208 36943 ft 473 kts 39°
2026-05-08 17:22 -23.59457 -45.57106 36949 ft 472 kts 39°
2026-05-08 17:22 -23.54683 -45.52170 36956 ft 473 kts 40°
2026-05-08 17:23 -23.51549 -45.48932 36493 ft 465 kts 40°
2026-05-08 17:23 -23.49963 -45.47294 36211 ft 462 kts 40°
2026-05-08 17:23 -23.47686 -45.44945 35997 ft 451 kts 40°
2026-05-08 17:23 -23.45419 -45.42605 35790 ft 451 kts 40°
2026-05-08 17:24 -23.43112 -45.40227 35569 ft 460 kts 40°
2026-05-08 17:24 -23.40754 -45.37797 35331 ft 471 kts 40°
2026-05-08 17:24 -23.38356 -45.35325 35064 ft 478 kts 40°
2026-05-08 17:24 -23.36103 -45.32637 34721 ft 483 kts 52°
2026-05-08 17:25 -23.34499 -45.29425 34401 ft 486 kts 68°
2026-05-08 17:25 -23.33575 -45.25880 34059 ft 489 kts 75°
2026-05-08 17:25 -23.32754 -45.22286 33389 ft 489 kts 75°
2026-05-08 17:25 -23.31950 -45.18677 32512 ft 493 kts 75°
2026-05-08 17:26 -23.31159 -45.15043 31822 ft 492 kts 76°
2026-05-08 17:26 -23.30378 -45.11432 31292 ft 488 kts 75°
2026-05-08 17:26 -23.29615 -45.07898 30753 ft 484 kts 75°
2026-05-08 17:26 -23.28846 -45.04336 30148 ft 481 kts 75°
2026-05-08 17:27 -23.28081 -45.00800 29537 ft 479 kts 75°
2026-05-08 17:27 -23.27320 -44.97284 28948 ft 475 kts 75°
2026-05-08 17:27 -23.26565 -44.93799 28377 ft 472 kts 75°
2026-05-08 17:27 -23.25812 -44.90328 27802 ft 469 kts 75°
2026-05-08 17:28 -23.25065 -44.86889 27222 ft 466 kts 75°
2026-05-08 17:28 -23.24323 -44.83475 26648 ft 463 kts 75°
2026-05-08 17:28 -23.23583 -44.80077 26080 ft 459 kts 75°
2026-05-08 17:28 -23.22850 -44.76710 25519 ft 456 kts 75°
2026-05-08 17:29 -23.22121 -44.73369 24958 ft 453 kts 75°
2026-05-08 17:29 -23.21396 -44.70049 24402 ft 449 kts 75°
2026-05-08 17:29 -23.20687 -44.66802 23879 ft 445 kts 75°
2026-05-08 17:29 -23.19973 -44.63542 23355 ft 441 kts 75°
2026-05-08 17:30 -23.19263 -44.60306 22750 ft 439 kts 75°
2026-05-08 17:30 -23.18558 -44.57090 22239 ft 435 kts 75°
2026-05-08 17:30 -23.17608 -44.53989 21657 ft 430 kts 62°
2026-05-08 17:30 -23.16303 -44.51093 21219 ft 424 kts 63°
2026-05-08 17:31 -23.15043 -44.48221 20776 ft 418 kts 62°
2026-05-08 17:31 -23.13794 -44.45386 20312 ft 414 kts 62°
2026-05-08 17:31 -23.12552 -44.42568 19833 ft 410 kts 62°
2026-05-08 17:31 -23.11325 -44.39784 19373 ft 407 kts 62°
2026-05-08 17:32 -23.10109 -44.37028 18921 ft 403 kts 62°
2026-05-08 17:32 -23.08902 -44.34295 18481 ft 399 kts 62°
2026-05-08 17:32 -23.07722 -44.31624 18036 ft 395 kts 62°
2026-05-08 17:32 -23.06536 -44.28941 17597 ft 392 kts 62°
2026-05-08 17:33 -23.05361 -44.26282 17165 ft 388 kts 62°
2026-05-08 17:33 -23.04197 -44.23652 16736 ft 385 kts 62°
2026-05-08 17:33 -23.03025 -44.21005 16296 ft 382 kts 62°
2026-05-08 17:33 -23.01892 -44.18447 15878 ft 380 kts 62°
2026-05-08 17:34 -23.00750 -44.15874 15450 ft 376 kts 61°
2026-05-08 17:34 -22.99621 -44.13326 15037 ft 373 kts 62°
2026-05-08 17:34 -22.98499 -44.10798 14614 ft 370 kts 61°
2026-05-08 17:34 -22.97387 -44.08293 14198 ft 366 kts 61°
2026-05-08 17:35 -22.96285 -44.05810 13798 ft 363 kts 61°
2026-05-08 17:35 -22.95192 -44.03352 13398 ft 360 kts 61°
2026-05-08 17:35 -22.94110 -44.00916 12975 ft 357 kts 61°
2026-05-08 17:35 -22.93035 -43.98500 12586 ft 354 kts 61°
2026-05-08 17:36 -22.91966 -43.96100 12145 ft 352 kts 62°
2026-05-08 17:36 -22.90909 -43.93729 11780 ft 347 kts 61°
2026-05-08 17:36 -22.89877 -43.91412 11423 ft 344 kts 62°
2026-05-08 17:36 -22.88838 -43.89085 11022 ft 341 kts 61°
2026-05-08 17:37 -22.87814 -43.86787 10760 ft 335 kts 61°
2026-05-08 17:37 -22.86818 -43.84556 10608 ft 318 kts 61°
2026-05-08 17:37 -22.85880 -43.82455 10472 ft 300 kts 61°
2026-05-08 17:37 -22.84997 -43.80478 10331 ft 283 kts 60°
2026-05-08 17:38 -22.84149 -43.78582 10192 ft 275 kts 60°
2026-05-08 17:38 -22.83327 -43.76744 10067 ft 267 kts 60°
2026-05-08 17:38 -22.82520 -43.74941 9860 ft 268 kts 60°
2026-05-08 17:38 -22.81704 -43.73116 9549 ft 275 kts 60°
2026-05-08 17:39 -22.80942 -43.71187 9225 ft 281 kts 70°
2026-05-08 17:39 -22.80463 -43.69116 8906 ft 283 kts 72°
2026-05-08 17:39 -22.79996 -43.67053 8612 ft 281 kts 72°
2026-05-08 17:39 -22.79524 -43.65001 8303 ft 280 kts 72°
2026-05-08 17:40 -22.79365 -43.64311 8204 ft 279 kts 72°
2026-05-08 17:40 -22.79070 -43.63042 8023 ft 278 kts 72°
2026-05-08 17:40 -22.78617 -43.61092 7867 ft 275 kts 72°
2026-05-08 17:41 -22.78195 -43.59217 8393 ft 240 kts 72°
2026-05-08 17:41 -22.77711 -43.57610 8528 ft 220 kts 56°
2026-05-08 17:41 -22.76760 -43.56373 8368 ft 211 kts 34°
2026-05-08 17:41 -22.75507 -43.55583 8142 ft 208 kts 18°
2026-05-08 17:42 -22.74132 -43.55198 7928 ft 200 kts 12°
2026-05-08 17:42 -22.72806 -43.54735 7509 ft 202 kts 22°
2026-05-08 17:42 -22.71576 -43.54049 7234 ft 197 kts 25°
2026-05-08 17:42 -22.70354 -43.53360 6771 ft 199 kts 25°
2026-05-08 17:43 -22.69112 -43.52667 6285 ft 202 kts 25°
2026-05-08 17:43 -22.67860 -43.51975 5881 ft 201 kts 25°
2026-05-08 17:43 -22.66785 -43.51023 5539 ft 204 kts 52°
2026-05-08 17:43 -22.66335 -43.49561 5209 ft 210 kts 84°
2026-05-08 17:44 -22.66675 -43.48018 4896 ft 216 kts 116°
2026-05-08 17:44 -22.67545 -43.46688 4606 ft 216 kts 123°
2026-05-08 17:44 -22.68435 -43.45383 4313 ft 215 kts 122°
2026-05-08 17:44 -22.69318 -43.44079 3995 ft 214 kts 122°
2026-05-08 17:45 -22.70195 -43.42776 3717 ft 213 kts 122°
2026-05-08 17:45 -22.71068 -43.41483 3440 ft 213 kts 122°
2026-05-08 17:45 -22.71943 -43.40183 3122 ft 213 kts 121°
2026-05-08 17:45 -22.72805 -43.38885 2850 ft 212 kts 121°
2026-05-08 17:46 -22.73661 -43.37616 2591 ft 212 kts 123°
2026-05-08 17:46 -22.74534 -43.36317 2275 ft 205 kts 124°
2026-05-08 17:46 -22.75312 -43.35151 2069 ft 178 kts 126°
2026-05-08 17:46 -22.76012 -43.34120 1825 ft 163 kts 123°
2026-05-08 17:47 -22.76662 -43.33157 1630 ft 156 kts 122°
2026-05-08 17:47 -22.77298 -43.32213 1380 ft 154 kts 123°
2026-05-08 17:47 -22.77927 -43.31276 1174 ft 153 kts 122°
2026-05-08 17:47 -22.78340 -43.30657 1047 ft 152 kts 123°
2026-05-08 17:48 -22.79177 -43.29442 770 ft 152 kts 124°
2026-05-08 17:48 -22.79820 -43.28513 582 ft 152 kts 123°
2026-05-08 17:48 -22.80434 -43.27590 336 ft 151 kts 122°
2026-05-08 17:48 -22.81044 -43.26669 151 ft 151 kts 124°
2026-05-08 17:49 -22.81639 -43.25761 30 ft 141 kts 123°
2026-05-08 17:49 -22.82089 -43.25086 29 ft 76 kts 126°
2026-05-08 17:49 -22.82303 -43.24756 29 ft 27 kts 120°
2026-05-08 17:49 -22.82346 -43.24632 29 ft 17 kts 101°
2026-05-08 17:50 -22.82367 -43.24502 29 ft 16 kts 95°
2026-05-08 17:50 -22.82332 -43.24460 29 ft 8 kts 324°
2026-05-08 17:50 -22.82293 -43.24511 29 ft 11 kts 308°
2026-05-08 17:50 -22.82232 -43.24597 29 ft 18 kts 304°
2026-05-08 17:51 -22.82155 -43.24724 29 ft 22 kts 303°
2026-05-08 17:51 -22.82067 -43.24866 29 ft 24 kts 303°
2026-05-08 17:51 -22.81977 -43.24996 29 ft 17 kts 311°
2026-05-08 17:51 -22.81894 -43.25102 29 ft 19 kts 308°
2026-05-08 17:52 -22.81809 -43.25225 29 ft 21 kts 307°
2026-05-08 17:52 -22.81711 -43.25215 29 ft 16 kts 32°
2026-05-08 17:52 -22.81515 -43.25078 29 ft 0 kts 33°